EW8556 Weather Reports


time (UTC)temp
C
wind
direction
speed
KPH
gust
KPH
rain 1hr
cm
rain 24hr
cm
rain mn
cm
humidity
%
barometer
mb
20260507000558 18 244 3.2 9.7 0.00 0.28 0.28 82 1007.8
20260507000059 18 145 4.8 9.7 0.00 0.28 0.28 82 1007.7
20260506235558 18 228 3.2 8.0 0.00 0.28 0.28 81 1007.8
20260506235059 18 193 3.2 8.0 0.00 0.28 0.28 81 1007.6
20260506234910 18 210 4.8 8.0 0.00 0.28 0.28 81 1007.7
20260506234035 18 254 4.8 16.1 0.00 0.28 0.28 81 1007.7
20260506233536 18 317 4.8 16.1 0.00 0.28 0.28 80 1007.6
20260506233352 18 195 4.8 9.7 0.00 0.28 0.28 80 1007.8
20260506232842 18 252 4.8 9.7 0.00 0.28 0.28 80 1007.8
20260506232334 18 262 4.8 11.3 0.00 0.28 0.28 80 1007.8
20260506231533 18 250 6.4 11.3 0.00 0.28 0.28 80 1007.6
20260506231346 19 305 3.2 11.3 0.00 0.28 0.28 80 1007.5
20260506230523 19 293 4.8 9.7 0.00 0.28 0.28 80 1007.6
20260506230349 19 200 3.2 11.3 0.00 0.28 0.28 79 1007.6
20260506225521 19 195 4.8 16.1 0.00 0.28 0.28 79 1007.7
20260506225329 19 261 3.2 17.7 0.00 0.28 0.28 79 1007.7
20260506224504 19 188 9.7 17.7 0.00 0.28 0.28 79 1007.7
20260506224003 19 312 8.0 14.5 0.00 0.28 0.28 79 1007.4
20260506223502 19 216 6.4 14.5 0.00 0.28 0.28 79 1007.5
20260506223326 19 255 9.7 14.5 0.00 0.28 0.28 79 1007.5
20260506222827 19 202 4.8 9.7 0.00 0.28 0.28 79 1007.5
20260506222326 19 180 4.8 14.5 0.00 0.28 0.28 78 1007.6
20260506221504 19 272 6.4 14.5 0.00 0.28 0.28 78 1007.5
20260506221004 19 266 6.4 11.3 0.00 0.28 0.28 78 1007.4
20260506220504 19 190 8.0 17.7 0.00 0.28 0.28 78 1007.3
20260506220316 19 278 9.7 17.7 0.00 0.28 0.28 78 1007.4
20260506215503 19 206 6.4 16.1 0.00 0.28 0.28 78 1007.5
20260506215005 19 268 6.4 16.1 0.00 0.28 0.28 78 1007.5
20260506214503 20 196 8.0 20.9 0.00 0.28 0.28 78 1007.4
20260506214319 20 210 11.3 20.9 0.00 0.28 0.28 77 1007.3
20260506213502 20 206 6.4 16.1 0.00 0.28 0.28 79 1007.2
20260506213003 20 288 4.8 17.7 0.00 0.28 0.28 79 1007.0
20260506212827 20 259 8.0 17.7 0.00 0.28 0.28 78 1007.3
20260506212002 20 319 8.0 17.7 0.00 0.28 0.28 78 1007.2
20260506211504 20 230 4.8 16.1 0.00 0.28 0.28 79 1007.2
20260506211003 20 221 6.4 17.7 0.00 0.28 0.28 79 1007.1
20260506210503 20 206 9.7 17.7 0.00 0.28 0.28 79 1007.1
20260506210004 20 300 4.8 17.7 0.00 0.28 0.28 78 1007.0
20260506205504 20 216 9.7 25.7 0.00 0.28 0.28 78 1007.1
20260506205003 19 227 11.3 25.7 0.00 0.28 0.28 79 1007.1
20260506204502 19 347 6.4 14.5 0.00 0.28 0.28 80 1007.1
20260506204003 19 283 11.3 19.3 0.00 0.28 0.28 80 1007.1
20260506203809 18 206 9.7 20.9 0.00 0.28 0.28 80 1007.0
20260506203004 18 230 11.3 20.9 0.00 0.28 0.28 81 1007.0
20260506202505 18 271 8.0 19.3 0.00 0.28 0.28 81 1007.0
20260506202003 18 251 8.0 19.3 0.00 0.28 0.28 82 1007.0
20260506201821 18 202 9.7 19.3 0.00 0.28 0.28 83 1007.0
20260506201004 18 285 9.7 19.3 0.00 0.28 0.28 83 1007.0
20260506200504 18 293 6.4 19.3 0.00 0.28 0.28 83 1007.1
20260506200004 18 172 8.0 19.3 0.00 0.28 0.28 83 1007.1
20260506195504 18 245 8.0 25.7 0.00 0.28 0.28 83 1007.1
20260506195003 17 279 14.5 25.7 0.00 0.28 0.28 84 1007.3
20260506194503 17 235 8.0 16.1 0.00 0.28 0.28 84 1007.3
20260506194004 17 290 11.3 22.5 0.00 0.28 0.28 84 1007.4
20260506193504 17 296 11.3 22.5 0.00 0.28 0.28 84 1007.4
20260506193002 17 203 8.0 24.1 0.00 0.28 0.28 85 1007.5
20260506192503 17 295 8.0 27.4 0.00 0.28 0.28 85 1007.4
20260506192330 17 210 12.9 27.4 0.00 0.28 0.28 84 1007.4
20260506191503 17 276 8.0 22.5 0.00 0.28 0.28 85 1007.5
20260506191004 17 269 8.0 24.1 0.00 0.28 0.28 86 1007.5
20260506190504 17 264 9.7 24.1 0.00 0.28 0.28 86 1007.7
20260506190321 16 255 8.0 19.3 0.00 0.28 0.28 86 1007.7
20260506185643 16 261 4.8 22.5 0.00 0.28 0.28 86 1007.7
20260506185606 16 266 8.0 19.3 0.00 0.28 0.28 86 1007.8
20260506184502 16 244 11.3 22.5 0.00 0.28 0.28 86 1007.7
20260506184002 16 266 8.0 19.3 0.00 0.28 0.28 87 1007.7
20260506183504 16 217 6.4 19.3 0.00 0.28 0.28 87 1007.8
20260506183003 16 209 11.3 19.3 0.00 0.28 0.28 87 1007.9
20260506182823 16 269 8.0 16.1 0.00 0.28 0.28 88 1007.9
20260506182003 16 235 9.7 24.1 0.00 0.28 0.28 88 1008.0
20260506181502 16 255 11.3 24.1 0.00 0.28 0.28 87 1008.1
20260506181004 16 166 8.0 17.7 0.00 0.28 0.28 88 1008.2
20260506180503 16 212 9.7 25.7 0.00 0.28 0.28 88 1008.0
20260506180004 16 216 8.0 25.7 0.00 0.28 0.28 89 1008.1
20260506175503 16 192 9.7 17.7 0.00 0.28 0.28 89 1008.1
20260506175318 16 204 6.4 11.3 0.00 0.28 0.28 89 1008.2
20260506174505 16 279 8.0 24.1 0.00 0.28 0.28 89 1008.2
20260506174003 16 279 8.0 24.1 0.00 0.28 0.28 89 1008.3
20260506173503 16 173 6.4 25.7 0.00 0.28 0.28 88 1008.3
20260506173004 16 219 11.3 25.7 0.00 0.28 0.28 89 1008.2
20260506172504 16 186 9.7 20.9 0.00 0.28 0.28 89 1008.2
20260506172001 16 230 6.4 16.1 0.00 0.28 0.28 89 1008.2
20260506171502 16 175 8.0 22.5 0.00 0.28 0.28 89 1008.2
20260506171005 16 223 9.7 27.4 0.03 0.28 0.28 89 1008.2
20260506170816 16 240 9.7 27.4 0.05 0.28 0.28 89 1008.4
20260506170001 16 292 9.7 24.1 0.08 0.20 0.28 89 1008.5
20260506165508 16 199 8.0 24.1 0.13 0.20 0.28 88 1008.4
20260506165500 16 152 9.7 24.1 0.15 0.20 0.28 89 1008.4
20260506165456 16 175 8.0 19.3 0.13 0.20 0.28 89 1008.4
20260506163948 16 316 12.9 24.1 0.15 0.20 0.28 89 1008.5
20260506163449 16 195 6.4 19.3 0.18 0.20 0.28 89 1008.4
20260506163318 16 224 9.7 17.7 0.18 0.20 0.28 89 1008.6
20260506162448 16 220 6.4 14.5 0.18 0.20 0.28 89 1008.6
20260506161948 16 189 9.7 11.3 0.18 0.20 0.28 90 1008.5
20260506161448 16 202 6.4 17.7 0.20 0.20 0.28 89 1008.6
20260506160948 16 213 6.4 17.7 0.20 0.20 0.25 88 1008.7
20260506160448 16 182 8.0 16.1 0.18 0.20 0.20 87 1008.8
20260506155947 16 310 6.4 14.5 0.15 0.03 0.18 87 1009.1
20260506155447 16 279 6.4 19.3 0.13 0.03 0.15 87 1009.3
20260506154948 16 190 8.0 19.3 0.13 0.03 0.15 87 1009.5
20260506154447 16 195 8.0 19.3 0.13 0.03 0.13 86 1009.6
20260506153948 16 240 4.8 19.3 0.13 0.03 0.13 86 1009.6
20260506153814 16 214 6.4 11.3 0.10 0.03 0.10 86 1009.6
20260506152947 16 295 6.4 14.5 0.10 0.03 0.10 86 1009.5
20260506152445 16 278 6.4 14.5 0.10 0.03 0.10 85 1009.5
20260506151944 16 195 4.8 16.1 0.10 0.03 0.10 85 1009.5
20260506151445 16 221 4.8 17.7 0.08 0.03 0.08 83 1009.4
20260506150945 16 185 8.0 17.7 0.05 0.03 0.05 83 1009.2
20260506150443 16 283 6.4 16.1 0.05 0.03 0.05 82 1009.3
20260506150304 16 282 6.4 14.5 0.03 0.00 0.03 82 1009.3
20260506145444 17 212 6.4 17.7 0.03 0.00 0.03 80 1009.1
20260506144943 17 286 6.4 17.7 0.03 0.00 0.03 81 1009.3
20260506144629 17 180 6.4 20.9 0.00 0.00 0.00 80 1009.5
20260506144547 17 214 8.0 20.9 0.00 0.00 0.00 81 1009.5
20260506143443 17 279 8.0 19.3 0.00 0.00 0.00 80 1009.4
20260506142944 17 195 8.0 16.1 0.00 0.00 0.00 79 1009.2
20260506142805 17 0.0 0.0 0.00 0.00 0.00 78 1009.4
20260506141941 18 255 8.0 14.5 0.00 0.00 0.00 76 1009.5
20260506141441 18 255 8.0 14.5 0.00 0.00 0.00 76 1009.5
20260506140940 18 252 6.4 24.1 0.00 0.00 0.00 75 1009.5
20260506140441 18 199 8.0 24.1 0.00 0.00 0.00 73 1009.4
20260506135941 18 217 11.3 24.1 0.00 0.00 0.00 72 1009.4
20260506135805 18 257 9.7 25.7 0.00 0.00 0.00 72 1009.3
20260506134940 18 220 14.5 30.6 0.00 0.00 0.00 71 1009.2
20260506134441 18 262 16.1 30.6 0.00 0.00 0.00 72 1009.3
20260506133939 18 231 9.7 25.7 0.00 0.00 0.00 74 1009.3
20260506133439 18 254 9.7 24.1 0.00 0.00 0.00 74 1009.1
20260506132940 18 254 9.7 20.9 0.00 0.00 0.00 74 1009.1
20260506132440 18 207 9.7 22.5 0.00 0.00 0.00 73 1009.3
20260506131940 18 298 9.7 24.1 0.00 0.00 0.00 74 1009.3
20260506131440 18 226 9.7 24.1 0.00 0.00 0.00 74 1009.4
20260506130939 18 251 9.7 20.9 0.00 0.00 0.00 74 1009.3
20260506130439 18 179 6.4 24.1 0.00 0.00 0.00 75 1009.4
20260506125940 18 204 14.5 24.1 0.00 0.00 0.00 74 1009.4
20260506125438 18 190 8.0 19.3 0.00 0.00 0.00 74 1009.5
20260506124940 18 192 8.0 19.3 0.00 0.00 0.00 74 1009.6
20260506124440 18 190 6.4 30.6 0.00 0.00 0.00 74 1009.7
20260506123939 18 302 14.5 30.6 0.00 0.00 0.00 73 1009.6
20260506123438 18 189 6.4 24.1 0.00 0.00 0.00 73 1009.6
20260506122938 18 275 9.7 25.7 0.00 0.00 0.00 74 1009.4
20260506122807 18 196 12.9 25.7 0.00 0.00 0.00 74 1009.6
20260506121938 18 61 14.5 27.4 0.00 0.00 0.00 74 1009.4
20260506121759 18 212 14.5 27.4 0.00 0.00 0.00 74 1009.3
20260506121246 18 161 8.0 20.9 0.00 0.00 0.00 74 1009.3
20260506120438 18 155 9.7 20.9 0.00 0.00 0.00 74 1009.2
20260506115939 18 165 6.4 20.9 0.00 0.00 0.00 75 1009.2
20260506115442 18 268 8.0 22.5 0.00 0.00 0.00 74 1009.3
20260506115257 18 206 9.7 29.0 0.00 0.00 0.00 74 1009.3
20260506114440 18 234 9.7 29.0 0.00 0.00 0.00 75 1009.2
20260506113940 17 230 4.8 16.1 0.00 0.00 0.00 75 1009.1
20260506113438 17 217 4.8 19.3 0.00 0.00 0.00 76 1009.1
20260506112938 17 293 6.4 20.9 0.00 0.00 0.00 76 1009.1
20260506112758 17 261 8.0 25.7 0.00 0.00 0.00 76 1009.1
20260506112306 17 307 9.7 25.7 0.00 0.00 0.00 76 1009.1
20260506111802 17 185 6.4 17.7 0.00 0.00 0.00 76 1009.0
20260506110938 17 179 6.4 22.5 0.00 0.00 0.00 76 1009.0
20260506110437 17 161 9.7 29.0 0.00 0.00 0.00 76 1009.0
20260506105939 17 178 6.4 29.0 0.00 0.00 0.00 76 1009.1
20260506105439 17 199 12.9 24.1 0.00 0.00 0.00 76 1009.0
20260506105257 17 185 4.8 25.7 0.00 0.00 0.00 77 1008.9
20260506104804 17 173 11.3 25.7 0.00 0.00 0.00 77 1009.1
20260506104133 17 193 8.0 24.1 0.00 0.00 0.00 77 1008.9
20260506104048 17 212 9.7 25.7 0.00 0.00 0.00 77 1009.0
20260506102936 17 164 6.4 25.7 0.00 0.00 0.00 77 1009.0
20260506102437 17 166 14.5 25.7 0.00 0.00 0.00 77 1008.9
20260506101936 17 189 12.9 37.0 0.00 0.00 0.00 77 1008.9
20260506101436 17 161 11.3 37.0 0.00 0.00 0.00 77 1008.9
20260506100936 17 178 6.4 20.9 0.00 0.00 0.00 77 1009.0
20260506100436 17 134 8.0 20.9 0.00 0.00 0.00 77 1008.9
20260506095936 17 186 9.7 17.7 0.00 0.00 0.00 77 1008.9
20260506095437 17 179 3.2 17.7 0.00 0.00 0.00 77 1008.9
20260506094936 17 183 8.0 14.5 0.00 0.00 0.00 77 1009.0
20260506094436 17 238 4.8 17.7 0.00 0.00 0.00 77 1008.9
20260506093935 17 199 6.4 19.3 0.00 0.00 0.00 77 1009.1
20260506093435 17 231 6.4 19.3 0.00 0.00 0.00 76 1009.1
20260506093302 17 175 6.4 17.7 0.00 0.00 0.00 76 1009.1
20260506092436 17 190 8.0 20.9 0.00 0.00 0.00 76 1009.1
20260506091936 17 203 8.0 20.9 0.00 0.00 0.00 76 1009.1
20260506091437 17 190 6.4 19.3 0.00 0.00 0.00 76 1009.0
20260506090937 17 186 6.4 19.3 0.00 0.00 0.00 76 1009.0
20260506090436 17 155 8.0 19.3 0.00 0.00 0.00 75 1009.1
20260506085934 17 216 6.4 19.3 0.00 0.00 0.00 75 1009.1
20260506085434 18 189 8.0 17.7 0.00 0.00 0.00 75 1009.2
20260506084935 18 173 8.0 20.9 0.00 0.00 0.00 75 1009.2
20260506084436 18 199 9.7 20.9 0.00 0.00 0.00 74 1009.2
20260506084250 18 172 6.4 17.7 0.00 0.00 0.00 75 1009.2
20260506083434 18 188 8.0 17.7 0.00 0.00 0.00 75 1009.2
20260506082934 18 149 4.8 16.1 0.00 0.00 0.00 75 1009.2
20260506082435 18 180 6.4 24.1 0.00 0.00 0.00 74 1009.2
20260506081933 18 206 4.8 24.1 0.00 0.00 0.00 74 1009.2
20260506081433 18 219 4.8 11.3 0.00 0.00 0.00 74 1009.2
20260506081248 18 210 6.4 17.7 0.00 0.00 0.00 75 1009.3
20260506080434 18 186 9.7 17.7 0.00 0.00 0.00 75 1009.3
20260506073431 18 220 6.4 17.7 0.00 0.00 0.00 74 1009.4
20260506072932 18 182 6.4 16.1 0.00 0.00 0.00 74 1009.4
20260506072724 18 199 6.4 16.1 0.00 0.00 0.00 74 1009.5
20260506071932 18 209 8.0 16.1 0.00 0.00 0.00 74 1009.4
20260506071431 18 193 4.8 17.7 0.00 0.00 0.00 73 1009.5
20260506071248 18 166 8.0 19.3 0.00 0.00 0.00 73 1009.5
20260506070431 18 172 6.4 19.3 0.00 0.00 0.00 73 1009.5
20260506062227 18 217 8.0 19.3 0.00 0.00 0.00 71 1009.8
20260506061429 18 200 6.4 17.7 0.00 0.00 0.00 72 1009.7
20260506060930 18 274 9.7 17.7 0.00 0.00 0.00 72 1009.7
20260506060429 18 188 6.4 17.7 0.00 0.00 0.00 71 1009.8
20260506050927 18 196 6.4 14.5 0.00 0.00 0.00 70 1010.2
20260506050428 18 206 4.8 14.5 0.00 0.00 0.00 70 1010.2
20260506050243 18 173 4.8 14.5 0.00 0.00 0.00 70 1010.3
20260506044928 18 192 6.4 11.3 0.00 0.00 0.00 70 1010.3
20260506044428 18 176 4.8 9.7 0.00 0.00 0.00 70 1010.3
20260506044246 18 199 4.8 11.3 0.00 0.00 0.00 70 1010.3
20260506043427 18 173 3.2 14.5 0.00 0.00 0.00 70 1010.3
20260506042927 18 227 3.2 14.5 0.00 0.00 0.00 70 1010.4
20260506042426 18 193 4.8 9.7 0.00 0.00 0.00 69 1010.4
20260506042240 18 195 4.8 11.3 0.00 0.00 0.00 69 1010.4
20260506041749 18 190 4.8 11.3 0.00 0.00 0.00 69 1010.3
20260506040926 18 183 3.2 8.0 0.00 0.00 0.00 68 1010.4
20260506040427 18 219 3.2 11.3 0.00 0.00 0.00 68 1010.4
20260506035926 18 189 4.8 11.3 0.00 0.00 0.00 68 1010.3
20260506035755 18 202 4.8 8.0 0.00 0.00 0.00 67 1010.3
20260506035238 18 210 3.2 9.7 0.00 0.00 0.00 67 1010.4
20260506034426 18 206 4.8 9.7 0.00 0.00 0.00 66 1010.4
20260506033926 18 247 4.8 11.3 0.00 0.00 0.00 66 1010.3
20260506033426 18 175 4.8 11.3 0.00 0.00 0.00 66 1010.3
20260506032926 18 178 6.4 11.3 0.00 0.00 0.00 66 1010.2
20260506032426 19 161 4.8 8.0 0.00 0.00 0.00 65 1010.2
20260506032247 19 196 6.4 11.3 0.00 0.00 0.00 65 1010.2
20260506031425 19 196 6.4 11.3 0.00 0.00 0.00 64 1010.2
20260506030925 19 159 4.8 16.1 0.00 0.00 0.00 64 1010.2
20260506030424 19 173 11.3 16.1 0.00 0.00 0.00 63 1010.2
20260506025927 20 202 4.8 11.3 0.00 0.00 0.00 63 1010.3
20260506025427 20 176 6.4 17.7 0.00 0.00 0.00 62 1010.3
20260506024926 20 178 6.4 17.7 0.00 0.00 0.00 61 1010.3
20260506024426 20 202 6.4 14.5 0.00 0.00 0.00 60 1010.3
20260506023927 20 209 6.4 14.5 0.00 0.00 0.00 60 1010.3
20260506023746 20 190 6.4 14.5 0.00 0.00 0.00 60 1010.3
20260506023246 20 197 6.4 11.3 0.00 0.00 0.00 59 1010.3
20260506022425 20 140 6.4 11.3 0.00 0.00 0.00 58 1010.3
20260506021927 20 212 4.8 17.7 0.00 0.00 0.00 58 1010.3
20260506021423 21 200 3.2 19.3 0.00 0.00 0.00 57 1010.3
20260506020923 21 188 4.8 19.3 0.00 0.00 0.00 57 1010.2
20260506020424 21 186 4.8 16.1 0.00 0.00 0.00 56 1010.2
20260506015924 21 216 6.4 16.1 0.00 0.00 0.00 55 1010.2
20260506015425 21 175 6.4 22.5 0.00 0.00 0.00 54 1010.1
20260506014923 21 131 4.8 22.5 0.00 0.00 0.00 54 1010.0
20260506014423 21 171 9.7 17.7 0.00 0.00 0.00 53 1010.0
20260506013922 21 176 4.8 16.1 0.00 0.00 0.00 52 1010.0
20260506013424 21 162 8.0 14.5 0.00 0.00 0.00 52 1009.9
20260506012923 21 131 8.0 14.5 0.00 0.00 0.00 52 1009.8
20260506012422 22 210 4.8 17.7 0.00 0.00 0.00 51 1009.8
20260506011922 22 186 4.8 17.7 0.00 0.00 0.00 51 1009.8
20260506011422 22 226 6.4 17.7 0.00 0.00 0.00 50 1009.7
20260506011106 22 168 6.4 17.7 0.00 0.00 0.00 49 1009.6
20260506011024 22 200 6.4 17.7 0.00 0.00 0.00 49 1009.7
20260506005923 22 199 9.7 11.3 0.00 0.00 0.00 48 1009.6
20260506005422 22 175 6.4 22.5 0.00 0.00 0.00 48 1009.5
20260506004922 22 226 8.0 22.5 0.00 0.00 0.00 48 1009.4
20260506004423 22 176 8.0 19.3 0.00 0.00 0.00 47 1009.4
20260506003923 22 175 9.7 22.5 0.00 0.00 0.00 47 1009.4
20260506003423 23 217 8.0 22.5 0.00 0.00 0.00 46 1009.5
20260506002921 23 197 4.8 19.3 0.00 0.00 0.00 46 1009.4
20260506002422 23 117 6.4 19.3 0.00 0.00 0.00 45 1009.3
20260506001921 23 202 9.7 19.3 0.00 0.00 0.00 45 1009.2
20260506001420 23 154 8.0 14.5 0.00 0.00 0.00 45 1009.2
20260506000921 23 179 9.7 30.6 0.00 0.00 0.00 45 1009.2